Regional Weather Roundup
Issued by NWS

Home | Current Version | Previous Version | Text Only | Print | Product List | Glossary On
Versions: 1 2 3 4 5 6 7 8 9 10 11 12 13 14 15 16 17 18 19 20 21 22 23 24 25 26 27 28 29 30 31 32 33 34 35 36 37 38 39 40 41 42 43 44 45 46 47 48 49 50
000
ASUS43 KTOP 240308
RWRKS

WEATHER ROUNDUP FOR KANSAS
NATIONAL WEATHER SERVICE GOODLAND KS
1000 PM CDT TUE MAY 23 2017

NOTE:  "FAIR" INDICATES FEW OR NO CLOUDS BELOW 12,000 FEET WITH NO
SIGNIFICANT WEATHER AND/OR OBSTRUCTIONS TO VISIBILITY.

KSZ001>006-013>018-027>032-041>047-240400-
NORTHWEST KANSAS

CITY           SKY/WX    TMP DP  RH WIND       PRES   REMARKS
GOODLAND       CLEAR     47  39  74 N3        30.01S
HAYS           CLEAR     49  41  74 NW7       29.96R
HILL CITY      CLEAR     47  40  76 N6        29.97S
RUSSELL        CLOUDY    54  42  64 N10       29.93R
$$

KSZ061>065-074>080-084>089-240400-
SOUTHWEST KANSAS

CITY           SKY/WX    TMP DP  RH WIND       PRES   REMARKS
DODGE CITY     PTCLDY    50  41  71 N9        29.98R
ELKHART          N/A     53  33  46 N2          N/A
GARDEN CITY    CLEAR     48  38  68 NW9       29.99S
GREAT BEND     CLEAR     50  43  77 N7        29.95R
LIBERAL        CLEAR     48  41  76 N7        30.01S
PRATT          CLEAR     47  40  76 N7        29.95R
$$

KSZ066>073-081>083-090>101-240400-
SOUTHEAST KANSAS

CITY           SKY/WX    TMP DP  RH WIND       PRES   REMARKS
CHANUTE        CLOUDY    57  47  69 NW17      29.83R
COFFEYVILLE    CLOUDY    57  48  72 NW9       29.84R
HUTCHINSON     MOCLDY    55  43  63 NW8       29.91R
MEDICINE LODGE   N/A     51  43  74 N6        29.92S
NEWTON         CLOUDY    54  44  69 NW9       29.90R
PARSONS        CLOUDY    53  50  89 NW5       29.84S
WICHITA INTL   MOCLDY    56  44  64 NW10      29.89S
WICHITA JABRA  MOCLDY    54  43  66 NW9       29.89R
WICHITA MCCONL CLOUDY    57  42  56 N10       29.88S
WINFIELD       CLOUDY    57  43  59 NW14      29.89S
$$

KSZ007>012-019>026-033>040-048>060-102>105-240400-
NORTHEAST KANSAS

CITY           SKY/WX    TMP DP  RH WIND       PRES   REMARKS
CONCORDIA      CLOUDY    53  45  74 NW12      29.90S
EMPORIA        CLOUDY    54  45  71 NW12      29.85S
LAWRENCE       CLOUDY    54  51  90 NW9       29.82S
MANHATTAN      CLOUDY    55  46  71 CALM      29.87S
MARYSVILLE     CLOUDY    52  46  82 NW9       29.86S
OLATHE IND     CLOUDY    53  51  93 W8        29.81S
OLATHE EXE     CLOUDY    52  52 100 W6        29.80S
SALINA         CLOUDY    57  44  62 NW10      29.91R
TOPEKA BILLARD CLOUDY    55  49  80 NW7       29.83S
TOPEKA FORBES  CLOUDY    54  51  90 NW7       29.83S
$$




USA.gov is the U.S. government's official web portal to all federal, state and local government web resources and services.